STARLINK-4157, 53035

Orbit data source: Space-Track

STARLINK-4157, 53035 is a payload satellite owned by SpaceX/Seattle (US) in LEO that was launched on Thu, 07 Jul 2022 UTC via an FALCON 9 launch vehicle from the Air Force Eastern Test Range (AFETR). Payload-class satellites include a variety of spacecraft equipped with specific instruments for various scientific and technological missions. These include communications satellites like Starlink; space stations such as the ISS; scientific satellites like the Hubble; Earth observation satellites from companies like Planet Labs, Umbra, and HawkEye 360; GPS; miniature CubeSats for education and research; and military/defense satellites.

Loading next visibility...
Identifier
53035, 2022-076BB
Orbit
LEO
Country
Flag of USUS
Related business
Manufacturer
SpaceX/Seattle
Mission
Operational Commercial Communications
Bus & Motor
STARLINK, Unknown motor
Mass
297 kg wet, ~275 kg dry
Launch date (UTC)
2022-07-07 (4 years ago)
Launch vehicle
FALCON 9
Launch site
Air Force Eastern Test Range (AFETR)
Object type
Payload
Rocket body
Debris
Shape & HBR
Box + 1 Pan, 10.1 m
Radar Cross Section
13.562 m², Large (>1 m²)

Expand to show TLE details & history
Last TLE update: 2 days ago

TLE from 2 days ago
0 STARLINK-4157
1 53035U 22076BB  26171.15726068  .00000814  00000-0  69227-4 0  9998
2 53035  53.1600 334.0076 0001210  76.7307 283.3819 15.08835174218591
Epoch: 2026-06-20T03:46Z
TLE epoch observation values (Epoch: 2026-06-20T03:46:27.322Z)
Latitude
-0.00006°
Longitude
9.0178°
Altitude
540.456 km
Speed
7.593 km/s
True Right ascension
22h 16m 01s
True Declination
0° 00' 00"
Sunlit
Object was in partial shadow at epoch
Visualization orbit readout
Latitude
Unknown
Longitude
Unknown
Altitude
Unknown
Speed
Unknown
Apparent Right ascension
Unknown
Apparent Declination
Unknown
Sunlit
N/A
Visualization observer readout
Local Sidereal Time
21:59:45
Azimuth
Unknown
Elevation
Unknown
Doppler factor
Unknown
Orbital elements
Apogee altitude
540.849 km
Perigee altitude
539.175 km
Semi-major axis
6,918.149 km
Eccentricity
0.00012
Inclination
53.16°
RAAN
334.0076°
Arg. of periapsis
76.7307°
True anomaly
283.36841°
Mean anomaly
283.3819°
Eccentric anomaly
283.37516°
Mean motion
3.77188 °/min
Orbital period
95.44 mins
BSTAR
0.000069227
Loading maneuver chart data...
Computing Atmospheric mass density...
Loading historical data...
Loading historical data...
Loading historical data...
Loading historical data...
Loading historical data...
Loading historical data...
Loading historical data...

Documentation

Showing up to 5 results
|